Location: Ferma
(41.9500°N, 44.5167°E)
Time: 20:51:45
(UTC+00:00)

CZ-2C R/B - Pass Details

Date: 07 June 2022
Orbit: 381 x 549 km, 35.0° (Epoch: 25 June)

Event Time Altitude Azimuth Distance (km) Brightness Sun altitude
Exits shadow 00:22:32 16° 218° (SW) 1,097 2.2 -10.3°
Maximum altitude 00:23:38 19° 190° (S) 994 2.2 -10.1°
Drops below altitude 10° 00:26:00 10° 143° (SE) 1,420 3.4 -9.8°
Sets 00:28:30 0° 124° (SE) 2,300 4.7 -9.5°
